TimeMST,TemperatureF,Dew PointF,Humidity,Sea Level PressureIn,VisibilityMPH,Wind Direction,Wind SpeedMPH,Gust SpeedMPH,PrecipitationIn,Events,Conditions,WindDirDegrees,DateUTC
12:18 AM,39.2,39.2,100,30.04,2.5,Calm,Calm,-,0.02,Rain,Light Rain,0,2012-11-25 07:18:00
12:53 AM,39.9,39.0,97,30.07,2.5,Calm,Calm,-,0.06,Rain,Light Rain,0,2012-11-25 07:53:00
1:14 AM,39.2,39.2,100,30.04,2.0,Calm,Calm,-,0.03,Rain,Light Rain,0,2012-11-25 08:14:00
1:27 AM,39.2,39.2,100,30.03,2.0,NW,3.5,-,0.04,Rain,Light Rain,310,2012-11-25 08:27:00
1:53 AM,39.9,37.9,93,30.06,2.5,WNW,4.6,-,0.06,Rain,Light Rain,290,2012-11-25 08:53:00
2:17 AM,39.2,37.4,93,30.04,3.0,WNW,6.9,-,0.01,Rain,Light Rain,290,2012-11-25 09:17:00
2:27 AM,39.2,37.4,93,30.05,2.5,WNW,6.9,-,0.02,Rain,Light Rain,300,2012-11-25 09:27:00
2:40 AM,39.2,37.4,93,30.05,3.0,WNW,8.1,-,0.03,Rain,Light Rain,300,2012-11-25 09:40:00
2:53 AM,39.0,37.9,96,30.08,2.5,WNW,5.8,-,0.03,Rain,Light Rain,300,2012-11-25 09:53:00
3:10 AM,39.2,37.4,93,30.05,3.0,West,3.5,-,0.01,Rain,Light Rain,270,2012-11-25 10:10:00
3:19 AM,39.2,37.4,93,30.05,2.5,West,3.5,-,0.02,Rain,Light Rain,280,2012-11-25 10:19:00
3:26 AM,39.2,37.4,93,30.05,3.0,Calm,Calm,-,0.02,Rain,Light Rain,0,2012-11-25 10:26:00
3:50 AM,39.2,37.4,93,30.05,2.0,West,5.8,-,0.02,,Overcast,270,2012-11-25 10:50:00
3:53 AM,39.0,37.9,96,30.07,2.0,West,5.8,-,0.02,,Overcast,270,2012-11-25 10:53:00
4:02 AM,39.2,37.4,93,30.05,1.5,West,5.8,-,N/A,,Overcast,270,2012-11-25 11:02:00
4:22 AM,39.2,37.4,93,30.05,1.0,WNW,5.8,-,N/A,,Mist,290,2012-11-25 11:22:00
4:31 AM,39.2,37.4,93,30.06,0.8,WNW,6.9,-,N/A,,Mist,300,2012-11-25 11:31:00
4:53 AM,39.0,37.9,96,30.09,0.5,WNW,9.2,-,N/A,Fog,Fog,300,2012-11-25 11:53:00
5:12 AM,39.2,37.4,93,30.06,1.5,NW,6.9,-,0.00,Rain,Light Rain,310,2012-11-25 12:12:00
5:23 AM,39.2,37.4,93,30.06,2.5,WNW,6.9,-,0.00,,Overcast,300,2012-11-25 12:23:00
5:49 AM,39.2,37.4,93,30.07,1.5,WNW,6.9,-,0.00,,Overcast,300,2012-11-25 12:49:00
5:53 AM,39.0,37.9,96,30.10,1.2,WNW,5.8,-,0.01,,Overcast,300,2012-11-25 12:53:00
6:07 AM,39.2,37.4,93,30.07,0.8,WNW,4.6,-,N/A,,Mist,300,2012-11-25 13:07:00
6:16 AM,39.2,37.4,93,30.07,1.5,WNW,6.9,-,N/A,,Overcast,300,2012-11-25 13:16:00
6:26 AM,39.2,37.4,93,30.07,2.5,WNW,5.8,-,N/A,,Overcast,300,2012-11-25 13:26:00
6:44 AM,39.2,37.4,93,30.07,1.5,West,4.6,-,N/A,,Overcast,280,2012-11-25 13:44:00
6:53 AM,39.0,37.9,96,30.11,1.2,WNW,6.9,-,N/A,,Overcast,300,2012-11-25 13:53:00
7:07 AM,39.2,37.4,93,30.08,0.5,WNW,6.9,-,N/A,Fog,Fog,300,2012-11-25 14:07:00
7:30 AM,39.2,37.4,93,30.09,0.2,NW,10.4,-,N/A,Fog,Fog,320,2012-11-25 14:30:00
7:53 AM,39.0,37.9,96,30.13,0.5,NW,9.2,-,N/A,Fog,Fog,320,2012-11-25 14:53:00
8:07 AM,39.2,37.4,93,30.10,0.2,NW,8.1,-,N/A,Fog,Fog,320,2012-11-25 15:07:00
8:42 AM,39.2,37.4,93,30.11,0.5,WNW,5.8,-,N/A,Fog,Fog,300,2012-11-25 15:42:00
8:53 AM,39.0,37.9,96,30.15,1.5,WNW,5.8,-,N/A,,Overcast,300,2012-11-25 15:53:00
9:00 AM,39.2,37.4,93,30.12,3.0,NW,4.6,-,N/A,,Overcast,320,2012-11-25 16:00:00
9:53 AM,39.0,37.9,96,30.17,5.0,WNW,6.9,-,N/A,,Overcast,290,2012-11-25 16:53:00
10:51 AM,41.0,37.4,87,30.15,10.0,WNW,5.8,-,N/A,,Overcast,290,2012-11-25 17:51:00
10:53 AM,41.0,37.0,86,30.17,10.0,West,5.8,-,N/A,,Overcast,280,2012-11-25 17:53:00
11:07 AM,42.8,37.4,81,30.14,10.0,WNW,10.4,-,N/A,,Mostly Cloudy,300,2012-11-25 18:07:00
11:33 AM,42.8,35.6,76,30.15,10.0,NW,10.4,-,N/A,,Mostly Cloudy,310,2012-11-25 18:33:00
11:51 AM,42.8,35.6,76,30.15,10.0,WNW,9.2,-,N/A,,Partly Cloudy,290,2012-11-25 18:51:00
11:53 AM,44.1,36.0,73,30.17,10.0,WNW,10.4,-,N/A,,Partly Cloudy,300,2012-11-25 18:53:00
12:53 PM,44.1,35.1,71,30.16,10.0,NW,9.2,-,N/A,,Scattered Clouds,310,2012-11-25 19:53:00
1:53 PM,46.0,34.0,63,30.14,10.0,WNW,12.7,-,N/A,,Clear,300,2012-11-25 20:53:00
2:53 PM,46.9,28.9,50,30.14,10.0,NW,12.7,-,N/A,,Scattered Clouds,310,2012-11-25 21:53:00
3:53 PM,45.0,28.9,53,30.16,10.0,WNW,10.4,-,N/A,,Clear,290,2012-11-25 22:53:00
4:53 PM,43.0,27.0,53,30.17,10.0,WNW,10.4,-,N/A,,Clear,300,2012-11-25 23:53:00
5:53 PM,39.9,27.0,60,30.19,10.0,WNW,4.6,-,N/A,,Clear,290,2012-11-26 00:53:00
6:53 PM,37.9,28.0,68,30.20,10.0,WNW,3.5,-,0.00,Snow,Light Snow,300,2012-11-26 01:53:00
7:53 PM,37.0,28.0,70,30.22,10.0,West,9.2,-,0.00,,Clear,280,2012-11-26 02:53:00
8:53 PM,35.1,28.0,76,30.23,10.0,West,4.6,-,N/A,,Clear,270,2012-11-26 03:53:00
9:53 PM,32.0,27.0,82,30.25,10.0,Calm,Calm,-,N/A,,Clear,0,2012-11-26 04:53:00
10:53 PM,30.0,25.0,82,30.25,10.0,South,3.5,-,N/A,,Clear,180,2012-11-26 05:53:00
11:53 PM,30.0,25.0,82,30.26,10.0,Calm,Calm,-,N/A,,Clear,0,2012-11-26 06:53:00